User: anonymous   Login
Location: Unspecified
(0.0000°N, 0.0000°E)
Time: 17:59:30
(UTC+00:00)
Language:

Courier 1B - Orbit

View from above orbital plane
View from above orbital plane
View from above satellite
View from above satellite

Ground track
Ground track

The orbit data is extracted from the following two-line orbital elements,

1    58U 60013A   18055.44943386 +.00000083 +00000-0 -65649-5 0  9990
2    58 028.3293 056.4485 0164850 281.7107 076.4984 13.46311897825325
Epoch (UTC): 24 February 2018 10:47:11
Eccentricity: 0.0164850
inclination: 28.3293°
perigee height: 963 km
apogee height: 1209 km
right ascension of ascending node: 56.4485°
argument of perigee: 281.7107°
revolutions per day: 13.46311897
mean anomaly at epoch: 76.4984°
orbit number at epoch: 82532

The dashed part of the orbit path shows where the satellite is in the earth's shadow,  

DLR